Regional Weather Roundup
Issued by NWS Kansas City/Pleasant Hill, MO

Home | Current Version | Previous Version | Graphics & Text | Print | Product List | Glossary Off
Versions: 1 2 3 4 5 6 7 8 9 10 11 12 13 14 15 16 17 18 19 20 21 22 23 24 25 26 27 28 29 30 31 32 33 34 35 36 37 38 39 40 41 42 43 44 45 46 47 48 49 50

000
ASUS43 KEAX 072110
RWREAX

WEATHER ROUNDUP FOR EASTERN KANSAS AND NORTHWEST MISSOURI
NATIONAL WEATHER SERVICE KANSAS CITY/PLEASANT HILL MO
400 PM CDT TUE JUL 07 2015

KSZ040-057-103>105-MOZ028-029-037-043-072200-
...KANSAS CITY METROPOLITAN AREA...

CITY           SKY/WX    TMP DP  RH WIND       PRES   REMARKS
K.C. INTL      CLOUDY    71  60  68 N9        30.06S
K.C. DOWNTOWN  CLOUDY    73  59  61 N14       30.04S
LEES SUMMIT    CLOUDY    73  59  61 N9        30.05
OLATHE - IXD   CLOUDY    71  61  70 N14       30.06S HAZE
OLATHE - OJC   CLOUDY    72  58  61 N12       30.04S HAZE
LAWRENCE       CLOUDY    70  58  65 N7G16     30.06F

$$

MOZ001>008-011>017-020>025-030>033-038>040-044>046-053-054-072200-
...NORTHERN AND CENTRAL MISSOURI...

CITY           SKY/WX    TMP DP  RH WIND       PRES   REMARKS
ST. JOSEPH     PTSUNNY   73  57  57 N12       30.06F
MOSBY          MOCLDY    72  55  56 NE10      30.05S
WARRENSBURG    LGT RAIN  70  61  73 N9        30.04R
WHITEMAN AFB   RAIN      70  63  78 NE6       30.02S
CLINTON        DRIZZLE   66  64  94 NE6       30.04S
SEDALIA        CLOUDY    71  63  75 NE7       30.04F HAZE
WARSAW         NOT AVBL
CHILLICOTHE      N/A     75  59  57 NE10      30.06F
KIRKSVILLE     PTSUNNY   72  57  59 NE9       30.06S HAZE

$$

MOZ041-047>049-056>058-063>065-088>090-097-072200-
...EASTERN AND SOUTHERN MISSOURI...

CITY           SKY/WX    TMP DP  RH WIND       PRES   REMARKS
ST. LOUIS INTL LGT RAIN  72  64  78 NE6       30.01R
SPIRIT OF STL  CLOUDY    69  65  86 N9        30.00S
COLUMBIA       CLOUDY    69  63  81 NE8       30.03S HAZE
JEFFERSON CITY LGT RAIN  67  63  87 NE3       30.03R FOG
ROLLA          LGT RAIN  65  64  97 N12       30.01S FOG
OSAGE BEACH    CLOUDY    64  63  94 NE6       30.03R
SPRINGFIELD    LGT RAIN  68  67  96 N8        30.02R FOG
BRANSON        LGT RAIN  72  70  94 CALM      30.02F
JOPLIN         CLOUDY    66  63  90 NE6       30.04R FOG
WEST PLAINS    LGT RAIN  73  70  90 W7        30.03S

$$

IAZ060-094-KSZ022-034>040-054-083-096-NEZ052-066-093-072200-
...KANSAS...SOUTHEAST NEBRASKA AND IOWA...

CITY           SKY/WX    TMP DP  RH WIND       PRES   REMARKS
TOPEKA         CLOUDY    70  58  65 NE7       30.06F
MANHATTAN      CLOUDY    72  52  49 NE12      30.08F
EMPORIA        CLOUDY    72  59  63 N12       30.06F
CHANUTE        CLOUDY    67  64  90 N6        30.04F FOG
WICHITA        LGT RAIN  70  51  51 N15       30.06F
OMAHA          MOSUNNY   73  51  46 VRB6      30.11F
LINCOLN        SUNNY     73  49  42 NE12      30.13S
FALLS CITY     PTSUNNY   73  53  49 NE12      30.08F
LAMONI         MOSUNNY   72  56  57 NE10      30.08F
DES MOINES     PTSUNNY   73  50  44 N7        30.09S

$$



USA.gov is the U.S. government's official web portal to all federal, state and local government web resources and services.